time_stamp(utc),avg(mph),gust(mph),direction(deg),12m_air_temp(f),sonic_u(cm/s),sonic_v(cm/s),sonic_w(cm/s),pressure,2m_air_temp(f),pyranometer(W/m^2)
"2021-03-26 00:02:39+00",7.6,9.6,,47.8,-37,-316,-5,1016.81,47.7,0
"2021-03-26 00:07:39+00",7.0,9.0,,48.1,-76,-299,12,1017.1,48,0
"2021-03-26 00:12:39+00",9.4,11.4,,48.1,-96,-396,12,1017.1,48,0
"2021-03-26 00:17:39+00",8.7,10.7,,48.1,-74,-369,2,1017.12,48,0
"2021-03-26 00:22:39+00",8.0,11.0,,48.1,-80,-324,12,1017.23,48.1,0
"2021-03-26 00:27:39+00",10.5,13.5,,48,-48,-459,-12,1017.31,48,0
"2021-03-26 00:32:39+00",10.4,12.4,,48.1,-46,-430,-17,1017.36,48,0
"2021-03-26 00:37:39+00",9.1,13.1,,48.2,-67,-400,3,1017.25,48.1,0
"2021-03-26 00:42:39+00",9.7,11.7,,48.3,-74,-403,-6,1017.29,48.2,0
"2021-03-26 00:47:39+00",7.2,11.2,,48.3,-43,-314,-3,1017.13,48.2,0
"2021-03-26 00:52:39+00",6.6,9.6,,48.3,15,-280,-12,1017.13,48.2,0
"2021-03-26 00:57:39+00",7.8,10.8,,48,-9,-320,-13,1017.1,48.1,0
"2021-03-26 01:02:39+00",6.3,8.3,,47.8,30,-259,-7,1016.99,47.8,0
"2021-03-26 01:07:39+00",5.6,7.6,,47.7,54,-213,9,1016.79,47.7,0
"2021-03-26 01:12:39+00",5.6,6.6,,47.6,132,-201,-8,1016.52,47.6,0
"2021-03-26 01:17:39+00",6.7,7.7,,47.5,48,-265,-6,1016.72,47.6,0
"2021-03-26 01:22:39+00",7.3,9.3,,47.6,87,-293,-17,1016.77,47.7,0
"2021-03-26 01:27:39+00",6.5,8.5,,47.8,-9,-273,-17,1017.18,47.7,0
"2021-03-26 01:32:39+00",7.2,9.2,,47.9,9,-303,-7,1017.17,47.8,0
"2021-03-26 01:37:39+00",6.8,7.8,,47.9,29,-285,-17,1017.03,47.8,0
"2021-03-26 01:42:39+00",8.1,10.1,,48.3,37,-335,-6,1017.06,48.1,0
"2021-03-26 01:47:39+00",8.2,9.2,,48.3,67,-343,-8,1016.95,48.2,0
"2021-03-26 01:52:39+00",7.5,8.5,,48.2,50,-332,-9,1016.81,48.2,0
"2021-03-26 01:57:39+00",7.6,9.6,,48.2,34,-327,-14,1016.93,48.2,0
"2021-03-26 02:02:39+00",6.3,8.3,,48.2,20,-255,-12,1016.98,48.2,0
"2021-03-26 02:07:39+00",6.5,7.5,,48.3,76,-262,-12,1016.76,48.3,0
"2021-03-26 02:12:39+00",5.9,6.9,,48.1,149,-209,-4,1016.44,48.2,0
"2021-03-26 02:17:39+00",4.8,5.8,,47.9,45,-191,-3,1016.6,48.1,0
"2021-03-26 02:22:39+00",5.0,6.0,,47.9,33,-209,-4,1016.53,47.9,0
"2021-03-26 02:27:39+00",4.9,5.9,,48,48,-203,-5,1016.45,47.9,0
"2021-03-26 02:32:39+00",6.3,6.3,,47.9,103,-244,-15,1016.29,47.9,0
"2021-03-26 02:37:39+00",6.9,7.9,,47.9,155,-252,-11,1016.16,47.9,0
"2021-03-26 02:42:39+00",7.3,8.3,,47.9,161,-267,-12,1015.87,47.9,0
"2021-03-26 02:47:39+00",7.5,8.5,,47.9,168,-279,-6,1015.76,47.9,0
"2021-03-26 02:52:39+00",7.0,8.0,,48.1,106,-283,-17,1015.8,48.1,0
"2021-03-26 02:57:39+00",6.8,8.8,,48.3,87,-262,-9,1015.69,48.2,0
"2021-03-26 03:02:39+00",6.9,8.9,,48.6,71,-299,-4,1015.62,48.4,0
"2021-03-26 03:07:39+00",8.1,10.1,,48.9,81,-327,-10,1015.67,48.7,0
"2021-03-26 03:12:39+00",8.2,10.2,,49,61,-335,-13,1015.67,48.8,0
"2021-03-26 03:17:39+00",5.9,8.9,,49.2,33,-253,11,1015.6,49,0
"2021-03-26 03:22:39+00",6.1,8.1,,49.4,42,-256,4,1015.51,49.2,0
"2021-03-26 03:27:39+00",6.8,9.8,,49.5,15,-295,-19,1015.53,49.3,0
"2021-03-26 03:32:39+00",8.2,11.2,,49.8,4,-340,-8,1015.58,49.5,0
"2021-03-26 03:37:39+00",9.5,11.5,,49.9,69,-397,-9,1015.5,49.7,0
"2021-03-26 03:42:39+00",7.7,10.7,,50,-52,-319,10,1015.58,49.8,0
"2021-03-26 03:47:39+00",8.1,12.1,,50,3,-333,-8,1015.42,49.8,0
"2021-03-26 03:52:39+00",7.3,10.3,,50,-2,-306,-10,1015.34,49.8,0
"2021-03-26 03:57:39+00",10.8,13.8,,50.4,-60,-456,-8,1015.21,50.1,0
"2021-03-26 04:02:39+00",7.8,10.8,,50.4,-44,-306,26,1015.21,50.2,0
"2021-03-26 04:07:39+00",10.5,13.5,,50.6,-72,-461,-28,1015.05,50.3,0
"2021-03-26 04:12:39+00",9.8,12.8,,50.9,-85,-424,5,1015.1,50.6,0
"2021-03-26 04:17:39+00",12.1,14.1,,51.1,-123,-515,-10,1015.05,50.9,0
"2021-03-26 04:22:39+00",10.4,14.4,,51.2,-97,-438,-5,1014.94,51,0
"2021-03-26 04:27:39+00",11.3,15.3,,51.1,-106,-456,-8,1014.89,50.9,0
"2021-03-26 04:32:39+00",11.3,14.3,,51.1,-137,-469,-4,1014.89,50.9,0
"2021-03-26 04:37:39+00",11.6,14.6,,51.3,-103,-493,-14,1014.76,51,0
"2021-03-26 04:42:39+00",11.9,14.9,,51.5,-93,-514,-9,1014.7,51.3,0
"2021-03-26 04:47:39+00",12.6,15.6,,51.7,-93,-528,1,1014.68,51.4,0
"2021-03-26 04:52:39+00",12.4,16.4,,51.9,-91,-519,-6,1014.57,51.6,0
"2021-03-26 04:57:39+00",12.3,15.3,,52.2,-87,-516,-7,1014.37,51.8,0
"2021-03-26 05:02:39+00",12.9,15.9,,52.2,-90,-553,-20,1014.33,51.9,0
"2021-03-26 05:07:39+00",11.7,15.7,,52.3,-117,-492,6,1014.45,52,0
"2021-03-26 05:12:39+00",14.0,18.0,,52.5,-167,-579,-9,1014.6,52.2,0
"2021-03-26 05:17:39+00",11.6,15.6,,52.2,-109,-486,27,1014.55,52,0
"2021-03-26 05:22:39+00",12.4,16.4,,52,-104,-514,3,1014.29,51.8,0
"2021-03-26 05:27:39+00",12.9,16.9,,51.8,-80,-557,-5,1014.15,51.5,0
"2021-03-26 05:32:39+00",11.9,14.9,,51.7,-89,-491,9,1014.09,51.5,0
"2021-03-26 05:37:39+00",15.6,17.6,,52,-230,-647,-15,1014.53,51.6,0
"2021-03-26 05:42:39+00",14.0,18.0,,52.4,-191,-575,-2,1014.44,51.9,0
"2021-03-26 05:47:39+00",15.1,18.1,,52.9,-161,-633,-6,1014.07,52.4,0
"2021-03-26 05:52:39+00",12.6,16.6,,53,-110,-524,13,1013.85,52.5,0
"2021-03-26 05:57:39+00",13.0,17.0,,53.1,-114,-566,-1,1013.72,52.6,0
"2021-03-26 06:02:39+00",12.2,16.2,,53.1,-92,-513,9,1013.66,52.6,0
"2021-03-26 06:07:39+00",14.3,18.3,,53.1,-136,-601,12,1013.46,52.6,0
"2021-03-26 06:12:39+00",15.5,18.5,,53.1,-132,-640,-4,1013.34,52.7,0
"2021-03-26 06:17:39+00",17.9,20.9,,53.4,-247,-750,-5,1013.2,52.9,0
"2021-03-26 06:22:39+00",18.4,20.4,,53.8,-258,-749,-13,1013.34,53.3,0
"2021-03-26 06:27:39+00",18.1,21.1,,53.9,-254,-752,-4,1013.14,53.4,0
"2021-03-26 06:32:39+00",17.9,20.9,,54,-216,-758,-16,1012.96,53.5,0
"2021-03-26 06:37:39+00",16.7,19.7,,53.9,-151,-697,-23,1012.73,53.5,0
"2021-03-26 06:42:39+00",17.5,20.5,,53.8,-184,-755,-4,1012.46,53.5,0
"2021-03-26 06:47:39+00",17.0,20.0,,54.3,-234,-694,-6,1012.53,53.9,0
"2021-03-26 06:52:39+00",20.6,24.6,,54.6,-279,-844,0,1012.36,54.2,0
"2021-03-26 06:57:39+00",17.8,19.8,,54.3,-298,-729,14,1012.56,54,0
"2021-03-26 07:02:39+00",17.8,23.8,,54.1,-274,-743,-2,1012.3,53.8,0
"2021-03-26 07:07:39+00",18.4,21.4,,54.2,-279,-744,3,1011.96,53.9,0
"2021-03-26 07:12:39+00",19.2,23.2,,54,-277,-796,-12,1011.84,53.8,0
"2021-03-26 07:17:39+00",20.2,24.2,,53.7,-268,-827,-18,1011.68,53.5,0
"2021-03-26 07:22:39+00",15.7,21.7,,53.3,-135,-655,4,1011.31,53.1,0
"2021-03-26 07:27:39+00",17.3,19.3,,52.9,-150,-744,-16,1010.99,52.8,0
"2021-03-26 07:32:39+00",18.2,21.2,,52.8,-228,-750,-14,1011.01,52.6,0
"2021-03-26 07:37:39+00",17.7,23.7,,53.1,-200,-722,6,1010.85,52.8,0
"2021-03-26 07:42:39+00",19.2,23.2,,53.3,-210,-788,5,1010.73,53,0
"2021-03-26 07:47:39+00",17.9,20.9,,53.5,-231,-743,4,1010.65,53.2,0
"2021-03-26 07:52:39+00",18.6,21.6,,53.6,-274,-765,14,1010.75,53.2,0
"2021-03-26 07:57:39+00",16.7,20.7,,53.7,-681,-411,21,1011.57,53.3,0
"2021-03-26 08:02:39+00",17.2,21.2,,54.5,-349,-665,-5,1011.29,53.8,0
"2021-03-26 08:07:39+00",18.7,21.7,,55.2,-470,-706,17,1011.36,54.7,0
"2021-03-26 08:12:39+00",18.6,21.6,,55.1,-391,-740,-2,1011.24,54.6,0
"2021-03-26 08:17:39+00",17.0,19.0,,54.9,-342,-664,2,1011.43,54.4,0
"2021-03-26 08:22:39+00",16.6,18.6,,55.5,-390,-637,8,1011.18,54.9,0
"2021-03-26 08:27:39+00",19.6,22.6,,55.5,-364,-771,6,1010.96,55,0
"2021-03-26 08:32:39+00",22.1,26.1,,55.6,-333,-902,-11,1010.74,55,0
"2021-03-26 08:37:39+00",23.9,25.9,,55.6,-414,-960,-2,1010.99,55.1,0
"2021-03-26 08:42:39+00",20.7,22.7,,55.3,-418,-825,20,1011.06,54.7,0
"2021-03-26 08:47:39+00",21.4,25.4,,55.2,-457,-861,20,1011.13,54.6,0
"2021-03-26 08:52:39+00",16.1,21.1,,54.8,-127,-681,14,1010.48,54.4,0
"2021-03-26 08:57:39+00",20.5,27.5,,54.9,-192,-858,19,1010.51,54.5,0
"2021-03-26 09:02:39+00",26.4,30.4,,54.6,-353,-1096,-4,1010.59,54.2,0
"2021-03-26 09:07:39+00",23.0,26.0,,54,-351,-931,-4,1010.66,53.7,0
"2021-03-26 09:12:39+00",19.6,24.6,,53.8,-220,-823,-5,1010.39,53.5,0
"2021-03-26 09:17:39+00",24.2,28.2,,53.5,-364,-969,-11,1010.72,53.2,0
"2021-03-26 09:22:39+00",23.3,27.3,,53.5,-332,-950,-10,1010.76,53.1,0
"2021-03-26 09:27:39+00",20.4,25.4,,53.2,-276,-864,-2,1010.49,52.9,0
"2021-03-26 09:32:39+00",18.2,23.2,,53,-144,-773,9,1010.25,52.8,0
"2021-03-26 09:37:39+00",17.0,21.0,,52.5,-141,-719,-32,1010.11,52.4,0
"2021-03-26 09:42:39+00",18.0,22.0,,52.3,-310,-739,-20,1010.37,52.1,0
"2021-03-26 09:47:39+00",20.0,23.0,,52.6,-261,-819,-13,1010.33,52.1,0
"2021-03-26 09:52:39+00",17.4,21.4,,52.7,-280,-704,11,1010.52,52.3,0
"2021-03-26 09:57:39+00",14.6,20.6,,52.7,-115,-607,1,1010.25,52.3,0
"2021-03-26 10:02:39+00",14.5,17.5,,52.9,-104,-595,6,1009.97,52.6,0
"2021-03-26 10:07:39+00",14.3,18.3,,52.7,-121,-613,13,1010.05,52.4,0
"2021-03-26 10:12:39+00",13.3,15.3,,52.4,-204,-531,6,1010.19,52.2,0
"2021-03-26 10:17:39+00",13.9,14.9,,52.3,-244,-565,18,1010.38,52,0
"2021-03-26 10:22:39+00",12.1,14.1,,52.1,-269,-478,1,1010.52,51.8,0
"2021-03-26 10:27:39+00",11.3,15.3,,52,-148,-442,5,1010.14,51.7,0
"2021-03-26 10:32:39+00",12.3,15.3,,52,-136,-520,5,1010.15,51.7,0
"2021-03-26 10:37:39+00",11.5,14.5,,51.9,-153,-473,-10,1010.24,51.6,0
"2021-03-26 10:42:39+00",9.3,12.3,,52.1,-85,-394,3,1010.05,51.7,0
"2021-03-26 10:47:39+00",10.1,14.1,,52.4,-4,-432,-25,1009.67,52.1,0
"2021-03-26 10:52:39+00",12.2,15.2,,52.4,-46,-518,-15,1009.49,52.2,0
"2021-03-26 10:57:39+00",13.7,16.7,,51.9,-88,-594,-20,1009.51,51.8,0
"2021-03-26 11:02:39+00",13.8,17.8,,51.5,-147,-568,-4,1010.01,51.4,0
"2021-03-26 11:07:39+00",12.7,15.7,,51.1,-138,-521,-1,1009.71,51.1,0
"2021-03-26 11:12:39+00",12.2,16.2,,50.9,-94,-518,-2,1009.5,50.8,0
"2021-03-26 11:17:39+00",11.5,14.5,,50.9,-76,-480,-4,1009.45,50.8,0
"2021-03-26 11:22:39+00",11.8,15.8,,50.9,-92,-491,-19,1009.37,50.8,0
"2021-03-26 11:27:39+00",11.8,15.8,,51,-90,-520,2,1009.4,50.9,0
"2021-03-26 11:32:39+00",12.6,17.6,,51.2,-97,-528,-4,1009.3,51,0
"2021-03-26 11:37:39+00",13.6,17.6,,51.5,-93,-578,-18,1009.23,51.3,0
"2021-03-26 11:42:39+00",12.8,15.8,,51.7,-76,-525,6,1009.23,51.5,0
"2021-03-26 11:47:39+00",11.8,15.8,,51.7,-51,-523,-6,1009.21,51.6,0
"2021-03-26 11:52:39+00",12.7,17.7,,51.4,-80,-539,-8,1009.35,51.3,0
"2021-03-26 11:57:39+00",14.9,17.9,,51.8,-120,-651,-3,1009.56,51.6,0
"2021-03-26 12:02:39+00",15.6,18.6,,52.8,-232,-634,5,1009.6,52.3,0
"2021-03-26 12:07:39+00",18.8,21.8,,54.4,-340,-735,-1,1009.43,53.8,0
"2021-03-26 12:12:39+00",20.9,22.9,,55,-457,-814,9,1009.46,54.5,0
"2021-03-26 12:17:39+00",20.2,23.2,,54.7,-464,-772,18,1009.5,54.3,0
"2021-03-26 12:22:39+00",18.2,20.2,,54.6,-470,-674,19,1009.42,54.2,0
"2021-03-26 12:27:39+00",19.1,22.1,,54.9,-492,-709,39,1009.38,54.4,0
"2021-03-26 12:32:39+00",19.5,22.5,,55.4,-501,-738,29,1009.16,54.9,0
"2021-03-26 12:37:39+00",22.9,25.9,,55.4,-634,-832,33,1009.19,55,0
"2021-03-26 12:42:39+00",24.0,26.0,,55,-668,-843,3,1009.17,54.6,0
"2021-03-26 12:47:39+00",19.2,22.2,,54.6,-529,-696,31,1009.04,54.4,0
"2021-03-26 12:52:39+00",21.7,27.7,,54.4,-643,-730,25,1009.12,54.1,0
"2021-03-26 12:57:39+00",22.3,26.3,,54.4,-653,-751,25,1009.22,54.2,0
"2021-03-26 13:02:39+00",21.7,25.7,,54.2,-606,-798,21,1009.23,54,0
"2021-03-26 13:07:39+00",20.4,27.4,,54.1,-523,-728,25,1009.22,53.9,0
"2021-03-26 13:12:39+00",20.5,23.5,,54.2,-593,-693,33,1009.19,54,0
"2021-03-26 13:17:39+00",22.1,24.1,,54.4,-547,-822,20,1009.04,54.1,0
"2021-03-26 13:22:39+00",18.4,21.4,,54.6,-420,-712,29,1008.9,54.4,0
"2021-03-26 13:27:39+00",21.3,26.3,,55.6,-458,-837,23,1008.76,55.4,0
"2021-03-26 13:32:39+00",13.8,18.8,,56.2,-171,-568,13,1008.61,56.1,0
"2021-03-26 13:37:39+00",21.3,25.3,,55.9,-354,-863,16,1008.52,55.9,0
"2021-03-26 13:42:39+00",14.6,17.6,,55.3,-273,-579,41,1008.38,55.5,0
"2021-03-26 13:47:39+00",16.9,20.9,,55,-392,-679,24,1008.52,55.2,0
"2021-03-26 13:52:39+00",18.3,22.3,,55.1,-490,-685,6,1008.55,55.2,0
"2021-03-26 13:57:39+00",18.2,23.2,,54.6,-531,-599,31,1008.5,54.9,0
"2021-03-26 14:02:39+00",19.1,23.1,,54.2,-490,-705,8,1008.59,54.5,0
"2021-03-26 14:07:39+00",19.2,22.2,,54.1,-459,-734,18,1008.56,54.4,0
"2021-03-26 14:12:39+00",17.9,20.9,,53.9,-397,-693,8,1008.52,54.2,0
"2021-03-26 14:17:39+00",19.3,24.3,,53.8,-461,-755,1,1008.44,54.2,0
"2021-03-26 14:22:39+00",17.0,21.0,,53.7,-388,-661,3,1008.25,54.1,0
"2021-03-26 14:27:39+00",16.9,20.9,,53.7,-370,-676,13,1008.14,54.2,0
"2021-03-26 14:32:39+00",17.2,20.2,,53.7,-364,-672,1,1008.03,54.2,0
"2021-03-26 14:37:39+00",18.0,20.0,,53.7,-461,-672,11,1007.98,54.3,0
"2021-03-26 14:42:39+00",16.4,20.4,,53.8,-444,-642,25,1008.03,54.4,0
"2021-03-26 14:47:39+00",18.4,23.4,,54,-447,-695,4,1007.98,54.4,0
"2021-03-26 14:52:39+00",19.5,21.5,,54.3,-507,-729,16,1007.93,54.7,0
"2021-03-26 14:57:39+00",19.0,22.0,,54.5,-503,-708,21,1007.82,55.1,0
"2021-03-26 15:02:39+00",20.0,22.0,,54.4,-509,-760,16,1007.62,55.2,0
"2021-03-26 15:07:39+00",17.6,21.6,,54.9,-499,-634,46,1007.61,55.7,0
"2021-03-26 15:12:39+00",18.4,20.4,,55.4,-542,-600,26,1007.61,56.2,0
"2021-03-26 15:17:39+00",16.6,19.6,,55.8,-507,-536,37,1007.68,56.8,0
"2021-03-26 15:22:39+00",19.3,22.3,,55.8,-590,-626,20,1007.55,57.1,0
"2021-03-26 15:27:39+00",19.9,22.9,,56.3,-595,-668,8,1007.38,57.5,0
"2021-03-26 15:32:39+00",16.6,20.6,,57.4,-372,-651,-5,1007.27,58.5,0
"2021-03-26 15:37:39+00",19.5,23.5,,58.3,-473,-765,13,1007.1,59.6,0
"2021-03-26 15:42:39+00",16.3,19.3,,58.1,-267,-677,1,1007.02,59.7,0
"2021-03-26 15:47:39+00",18.1,20.1,,58.2,-268,-751,-7,1006.99,60,0
"2021-03-26 15:52:39+00",19.5,21.5,,57.9,-271,-815,-18,1006.76,59.8,0
"2021-03-26 15:57:39+00",18.5,21.5,,58.7,-280,-745,-11,1006.69,60.3,0
"2021-03-26 16:02:39+00",20.1,23.1,,59.2,-323,-821,-15,1006.53,60.8,0
"2021-03-26 16:07:39+00",18.1,21.1,,59.9,-368,-708,0,1006.36,61.4,0
"2021-03-26 16:12:39+00",17.0,19.0,,60.2,-415,-662,16,1006.18,61.8,0
"2021-03-26 16:17:39+00",18.6,22.6,,60.9,-413,-755,3,1006.18,62.4,0
"2021-03-26 16:22:39+00",18.0,20.0,,61.3,-420,-722,29,1006.13,62.8,0
"2021-03-26 16:27:39+00",17.2,20.2,,61.6,-419,-667,29,1006.12,63.2,0
"2021-03-26 16:32:39+00",21.2,24.2,,62.1,-536,-808,14,1006.09,63.6,0
"2021-03-26 16:37:39+00",21.5,26.5,,62.6,-524,-832,14,1006.02,64,0
"2021-03-26 16:42:39+00",18.7,23.7,,62.8,-408,-761,15,1005.93,64.3,0
"2021-03-26 16:47:39+00",22.3,26.3,,62.9,-512,-890,10,1005.84,64.4,0
"2021-03-26 16:52:39+00",19.1,24.1,,62.8,-525,-721,14,1005.88,64.4,0
"2021-03-26 16:57:39+00",19.4,23.4,,63.5,-489,-741,27,1005.75,64.9,0
"2021-03-26 17:02:39+00",21.2,23.2,,64.4,-539,-795,-11,1005.78,65.6,0
"2021-03-26 17:07:39+00",20.4,25.4,,65,-563,-745,-1,1005.73,66.2,0
"2021-03-26 17:12:39+00",18.5,21.5,,65.8,-458,-720,25,1005.68,66.8,0
"2021-03-26 17:17:39+00",19.3,22.3,,66.4,-548,-703,12,1005.64,67.5,0
"2021-03-26 17:22:39+00",21.2,23.2,,67.9,-566,-795,1,1005.58,68.4,0
"2021-03-26 17:27:39+00",22.5,26.5,,69.6,-590,-846,12,1005.36,69.7,0
"2021-03-26 17:32:39+00",22.1,28.1,,70.4,-670,-753,17,1005.35,70.9,0
"2021-03-26 17:37:39+00",21.5,25.5,,70.1,-630,-718,23,1005.36,70.9,0
"2021-03-26 17:42:39+00",21.0,25.0,,69.4,-826,-528,41,1005.31,70.7,0
"2021-03-26 17:47:39+00",21.8,24.8,,70,-688,-665,11,1005.19,71.1,0
"2021-03-26 17:52:39+00",20.9,24.9,,70.3,-769,-580,25,1005.21,71.1,0
"2021-03-26 17:57:39+00",22.6,27.6,,71.5,-736,-686,43,1005.12,71.5,0
"2021-03-26 18:02:39+00",21.0,23.0,,71.3,-665,-633,-4,1005.02,72,0
"2021-03-26 18:07:39+00",21.3,25.3,,71,-717,-615,8,1004.97,71.9,0
"2021-03-26 18:12:39+00",30.2,38.2,,74.1,-1227,-775,68,1004.73,73.3,0
"2021-03-26 18:17:39+00",17.5,20.5,,73.3,-650,-474,28,1004.81,74.1,0
"2021-03-26 18:22:39+00",22.6,30.6,,75.3,-905,-562,67,1004.82,75.2,0
"2021-03-26 18:27:39+00",26.3,31.3,,76.3,-1112,-527,45,1004.67,76.1,0
"2021-03-26 18:32:39+00",23.1,27.1,,76.5,-967,-551,51,1004.7,76.9,0
"2021-03-26 18:37:39+00",28.4,33.4,,77.4,-1192,-602,41,1004.56,77.3,0
"2021-03-26 18:42:39+00",28.0,32.0,,77.6,-1166,-634,78,1004.56,77.6,0
"2021-03-26 18:47:39+00",31.1,36.1,,77.7,-1295,-515,61,1004.52,78,0
"2021-03-26 18:52:39+00",32.3,38.3,,78.1,-1312,-747,58,1004.49,78.2,0
"2021-03-26 18:57:39+00",30.6,34.6,,77.8,-1298,-678,60,1004.57,78,0
"2021-03-26 19:02:39+00",30.9,35.9,,77.8,-1310,-339,42,1004.56,78.2,0
"2021-03-26 19:07:39+00",28.2,33.2,,77.6,-1146,-408,60,1004.63,78.6,0
"2021-03-26 19:12:39+00",29.1,36.1,,77.2,-1223,-407,41,1004.79,78.4,0
"2021-03-26 19:17:39+00",26.8,31.8,,77.3,-1152,-265,56,1004.67,78.5,0
"2021-03-26 19:22:39+00",23.4,32.4,,76.9,-1007,-238,59,1004.74,78.4,0
"2021-03-26 19:27:39+00",32.4,39.4,,79.1,-1397,-189,87,1004.58,78.9,0
"2021-03-26 19:32:39+00",23.9,26.9,,77.7,-970,-336,26,1004.81,78.8,0
"2021-03-26 19:37:39+00",28.2,39.2,,78,-1251,-205,62,1004.66,79.2,0
"2021-03-26 19:42:39+00",25.6,31.6,,78.7,-1108,-137,65,1004.71,79.6,0
"2021-03-26 19:47:39+00",33.7,37.7,,78.6,-1519,19,23,1004.66,79.5,0
"2021-03-26 19:52:39+00",35.4,40.4,,78.6,-1612,-21,37,1004.68,79.1,0
"2021-03-26 19:57:39+00",36.0,42.0,,79.5,-1619,16,67,1004.74,79.3,0
"2021-03-26 20:02:39+00",31.1,37.1,,79,-1363,-242,61,1004.88,79.4,0
"2021-03-26 20:07:39+00",34.4,38.4,,79,-1530,-284,68,1004.95,79.4,0
"2021-03-26 20:12:39+00",30.7,35.7,,78.7,-1388,1,59,1004.9,79.2,0
"2021-03-26 20:17:39+00",36.8,42.8,,79.3,-1630,-84,64,1004.93,79,0
"2021-03-26 20:22:39+00",36.2,41.2,,79.6,-1628,4,60,1004.98,79.3,0
"2021-03-26 20:27:39+00",35.1,38.1,,79.6,-1527,-270,23,1004.99,79.3,0
"2021-03-26 20:32:39+00",37.1,47.1,,78.8,-1593,-452,85,1005.16,79.3,0
"2021-03-26 20:37:39+00",34.3,39.3,,79.1,-1565,-9,59,1005.22,79.1,0
"2021-03-26 20:42:39+00",34.0,38.0,,78.8,-1531,-74,44,1005.23,78.7,0
"2021-03-26 20:47:39+00",34.2,39.2,,79.2,-1543,-53,44,1005.39,78.7,0
"2021-03-26 20:52:39+00",31.2,35.2,,78.7,-1379,-121,58,1005.55,78.6,0
"2021-03-26 20:57:39+00",36.1,42.1,,78.6,-1615,17,85,1005.57,78.4,0
"2021-03-26 21:02:39+00",31.4,36.4,,77.7,-1421,-101,46,1005.89,77.6,0
"2021-03-26 21:07:39+00",32.9,38.9,,78.2,-1465,125,87,1005.89,77.6,0
"2021-03-26 21:12:39+00",32.3,40.3,,78.1,-1448,-52,27,1006.14,77.4,0
"2021-03-26 21:17:39+00",23.6,27.6,,76.3,-1061,39,75,1006.26,76.8,0
"2021-03-26 21:22:39+00",29.0,32.0,,76.6,-1311,164,67,1006.33,76.5,0
"2021-03-26 21:27:39+00",31.9,35.9,,76.3,-1442,289,65,1006.42,76,0
"2021-03-26 21:32:39+00",31.2,35.2,,76.2,-1380,254,78,1006.62,75.7,0
"2021-03-26 21:37:39+00",33.5,38.5,,76.1,-1477,336,79,1006.51,75.3,0
"2021-03-26 21:42:39+00",31.3,34.3,,75,-1379,352,82,1006.71,74.8,0
"2021-03-26 21:47:39+00",30.3,35.3,,74.4,-1364,239,51,1006.96,74.2,0
"2021-03-26 21:52:39+00",36.4,42.4,,75.5,-1624,231,87,1007,74.1,0
"2021-03-26 21:57:39+00",40.1,46.1,,75.7,-1803,220,85,1007.1,74.2,0
"2021-03-26 22:02:39+00",32.3,37.3,,75.2,-1437,161,63,1007.3,74.2,0
"2021-03-26 22:07:39+00",36.0,40.0,,76.2,-1600,327,56,1007.5,74.4,0
"2021-03-26 22:12:39+00",33.0,43.0,,74.5,-1475,380,73,1007.72,73.5,0
"2021-03-26 22:17:39+00",29.8,34.8,,74.3,-1319,402,48,1007.91,73.2,0
"2021-03-26 22:22:39+00",22.5,25.5,,71.8,-992,226,47,1008.22,72.4,0
"2021-03-26 22:27:39+00",24.8,27.8,,71.8,-1081,338,57,1008.34,71.8,0
"2021-03-26 22:32:39+00",25.4,28.4,,72.1,-1047,536,68,1008.47,71.5,0
"2021-03-26 22:37:39+00",28.7,33.7,,72,-1143,649,55,1008.63,71.2,0
"2021-03-26 22:42:39+00",27.8,31.8,,71.5,-1131,571,59,1008.79,70.5,0
"2021-03-26 22:47:39+00",28.1,32.1,,71.6,-1173,543,64,1008.79,70.3,0
"2021-03-26 22:52:39+00",28.1,32.1,,71,-1190,462,42,1009.04,69.9,0
"2021-03-26 22:57:39+00",26.5,29.5,,70,-1126,461,48,1009.2,69.1,0
"2021-03-26 23:02:39+00",31.7,35.7,,70.5,-1279,665,58,1009.44,68.7,0
"2021-03-26 23:07:39+00",30.7,33.7,,69.8,-1234,633,61,1009.58,68.2,0
"2021-03-26 23:12:39+00",26.3,29.3,,69.1,-1108,427,41,1009.73,67.8,0
"2021-03-26 23:17:39+00",27.0,35.0,,69.5,-1147,439,59,1009.77,67.7,0
"2021-03-26 23:22:39+00",28.0,33.0,,69.4,-1203,449,51,1009.94,67.7,0
"2021-03-26 23:27:39+00",30.5,34.5,,69.2,-1331,442,39,1009.93,67.6,0
"2021-03-26 23:32:39+00",26.3,29.3,,68.1,-1100,470,47,1010.21,66.9,0
"2021-03-26 23:37:39+00",25.2,28.2,,68,-1074,416,49,1010.29,66.4,0
"2021-03-26 23:42:39+00",31.6,34.6,,68.9,-1353,466,56,1010.33,66.7,0
"2021-03-26 23:47:39+00",26.6,28.6,,67.5,-1105,464,36,1010.52,66.3,0
"2021-03-26 23:52:39+00",25.3,29.3,,67,-1027,487,47,1010.71,65.7,0
"2021-03-26 23:57:39+00",28.7,34.7,,68.2,-1164,527,73,1010.9,66.1,0
